Satellite-Ground Cal/Val Site Overpasses Predictions

Prediction of Satellite NPP Overpassing Cal/Val Site: Antarctic Dome C

Ground Cal/Val Site Location: Latitude: -75.10, Longitude: 123.35; Satellite-Ground Site NADIR distance within 100 km.

Table of predicted overpasses for the next 14.0 days since TLE Epoch: 10/9/2016
Interval Starting Time Ending Time Minimum Distance Time Minimum Distance (km)
1 10/10/2016 14:36:48 10/10/2016 14:37:01 10/10/2016 14:36:55 88.29
2 10/11/2016 07:38:20 10/11/2016 07:38:47 10/11/2016 07:38:34 37.97
3 10/12/2016 07:19:34 10/12/2016 07:19:54 10/12/2016 07:19:44 71.96
4 10/14/2016 15:01:49 10/14/2016 15:02:14 10/14/2016 15:02:01 56.17
5 10/15/2016 14:43:00 10/15/2016 14:43:25 10/15/2016 14:43:13 53.01
6 10/16/2016 07:44:41 10/16/2016 07:45:01 10/16/2016 07:44:51 73.62
7 10/17/2016 07:25:49 10/17/2016 07:26:16 10/17/2016 07:26:02 34.24
8 10/19/2016 15:08:15 10/19/2016 15:08:24 10/19/2016 15:08:20 94.28
9 10/20/2016 14:49:15 10/20/2016 14:49:44 10/20/2016 14:49:29 17.15
